Quillayute, WA
on Wednesday, January 23, 2013

Wednesday
Previous Day Next Day
Daily Summary
 ActualAverageRecord
Temperature
Mean Temperature °F 42°F  
Max Temperature 46°F 48°F 59°F (2005)
Min Temperature 33°F 36°F 7°F (1969)
Degree Days
Heating Degree Days 25 23  
Month to date heating degree days 541  
Since 1 July heating degree days 3019  
Cooling Degree Days 0 0  
Month to date cooling degree days 0  
Year to date cooling degree days 0  
Moisture
Dew Point 41°F   
Average Humidity 94    
Maximum Humidity 100    
Minimum Humidity 85    
Precipitation
Precipitation 0.99 in 0.46 in 3.91 in (1998)
Month to date precipitation 11.12  
Year to date precipitation 11.12  
Wind
Wind Speed 4 mph   
Max Wind Speed 12 mph   
Max Gust Speed 31 mph   
Visibility 2 miles   
Events Fog , Rain   

Key: T is trace of precipitation, MM is missing value
Source: NWS Daily Summary
Time(PST)TemperatureDew PointHumidity Pressure Visibility Wind DirectionWind SpeedGust SpeedPrecipitationEvents Conditions
12:10 AM 39.2°F 37.4°F 93% 29.89 in 2.0 miles Calm Calm - 0.01 in Rain Light Rain
12:46 AM 39.2°F 37.4°F 93% 29.88 in 3.0 miles Calm Calm - 0.04 in Rain Light Rain
12:53 AM 39.0°F 39.0°F 100% 29.88 in 2.5 miles NNE 3.5 mph - 0.04 in Rain Light Rain
1:04 AM 39.2°F 39.2°F 100% 29.87 in 3.0 miles North 4.6 mph - 0.01 in Rain Light Rain
1:26 AM 39.2°F - N/A% 29.88 in 1.8 miles Calm Calm - 0.03 in Rain Light Rain
1:45 AM 41.0°F 39.2°F 93% 29.88 in 1.2 miles Calm Calm - 0.07 in Rain Rain
1:53 AM 42.1°F 41.0°F 96% 29.89 in 1.5 miles Calm Calm - 0.09 in Rain Light Rain
2:08 AM 42.8°F 41.0°F 93% 29.88 in 1.2 miles Calm Calm - 0.03 in Rain Light Rain
2:12 AM 42.8°F 41.0°F 93% 29.88 in 1.5 miles Calm Calm - 0.04 in Rain Light Rain
2:23 AM 41.0°F 41.0°F 100% 29.88 in 2.0 miles Calm Calm - 0.05 in Rain Light Rain
2:53 AM 44.1°F 43.0°F 96% 29.88 in 2.0 miles SE 5.8 mph - 0.10 in Rain Light Rain
3:53 AM 45.0°F 43.0°F 93% 29.86 in 3.0 miles SE 8.1 mph - 0.08 in Rain Light Rain
4:37 AM 44.6°F - N/A% 29.84 in 4.0 miles SE 4.6 mph - 0.03 in Rain Light Rain
4:53 AM 45.0°F - N/A% 29.84 in 4.0 miles SE 5.8 mph - 0.03 in Rain Light Rain
5:06 AM 44.6°F - N/A% 29.83 in 2.0 miles SE 6.9 mph - 0.00 in Rain Light Rain
5:53 AM 45.0°F 44.1°F 97% 29.83 in 1.8 miles Variable 4.6 mph - 0.04 in Rain Light Rain
6:04 AM 44.6°F 44.6°F 100% 29.82 in 1.8 miles Variable 5.8 mph - 0.01 in Rain Light Rain
6:09 AM 44.6°F 44.6°F 100% 29.82 in 2.0 miles SE 6.9 mph - 0.02 in Rain Light Rain
6:26 AM 44.6°F 44.6°F 100% 29.82 in 2.5 miles SE 6.9 mph - 0.03 in Rain Light Rain
6:53 AM 45.0°F 44.1°F 97% 29.83 in 3.0 miles SE 4.6 mph - 0.05 in Rain Light Rain
7:16 AM 44.6°F - N/A% 29.83 in 2.5 miles SSE 8.1 mph - 0.02 in Rain Light Rain
7:53 AM 46.0°F - N/A% 29.82 in 2.5 miles SSE 8.1 mph - 0.07 in Rain Light Rain
8:00 AM 46.4°F - N/A% 29.81 in 2.5 miles SE 5.8 mph - 0.01 in Rain Light Rain
8:08 AM 46.4°F - N/A% 29.81 in 3.0 miles SSE 5.8 mph - 0.01 in Rain Light Rain
8:53 AM 46.0°F - N/A% 29.81 in 3.0 miles SE 5.8 mph - 0.04 in Rain Light Rain
9:09 AM 44.6°F - N/A% 29.81 in 2.5 miles Variable 4.6 mph - 0.01 in Rain Light Rain
9:31 AM 44.6°F 44.6°F 100% 29.81 in 2.0 miles SSE 3.5 mph - 0.02 in Rain Light Rain
9:39 AM 44.6°F 44.6°F 100% 29.81 in 1.8 miles South 3.5 mph - 0.03 in Rain Light Rain
9:53 AM 45.0°F 44.1°F 97% 29.82 in 1.5 miles SE 4.6 mph - 0.05 in Rain Light Rain
10:01 AM 44.6°F 44.6°F 100% 29.81 in 1.2 miles SE 4.6 mph - 0.01 in Rain Light Rain
10:10 AM 44.6°F 44.6°F 100% 29.82 in 1.5 miles SSE 4.6 mph - 0.02 in Rain Light Rain
10:32 AM 44.6°F 44.6°F 100% 29.82 in 1.5 miles Calm Calm - 0.03 in Rain Light Rain
10:53 AM 45.0°F 44.1°F 97% 29.83 in 1.5 miles SSW 4.6 mph - 0.05 in Rain Light Rain
11:20 AM 44.6°F 44.6°F 100% 29.83 in 1.2 miles South 4.6 mph - 0.01 in Rain Light Rain
11:34 AM 44.6°F 44.6°F 100% 29.83 in 1.2 miles South 3.5 mph - 0.03 in Rain Light Rain
11:45 AM 44.6°F 44.6°F 100% 29.83 in 1.5 miles South 4.6 mph - 0.04 in Rain Light Rain
11:53 AM 45.0°F 44.1°F 97% 29.83 in 1.5 miles South 5.8 mph - 0.05 in Rain Light Rain
12:20 PM 44.6°F 44.6°F 100% 29.83 in 1.2 miles South 6.9 mph - 0.02 in Rain Light Rain
12:24 PM 44.6°F 44.6°F 100% 29.83 in 1.5 miles South 5.8 mph - 0.03 in Rain Light Rain
12:53 PM 44.1°F - N/A% 29.83 in 1.5 miles SSW 6.9 mph - 0.06 in Rain Light Rain
1:18 PM 44.6°F 44.6°F 100% 29.83 in 2.5 miles Calm Calm - 0.03 in Rain Light Rain
1:30 PM 44.6°F 42.8°F 93% 29.84 in 1.5 miles WSW 4.6 mph - 0.04 in Rain Light Rain
1:38 PM 44.6°F 42.8°F 93% 29.84 in 1.0 miles Calm Calm - N/A Rain Rain
1:45 PM 44.6°F 42.8°F 93% 29.84 in 1.2 miles Calm Calm - 0.06 in Rain Light Rain
1:53 PM 45.0°F 43.0°F 93% 29.84 in 1.2 miles Calm Calm - 0.08 in Rain Rain
2:09 PM 44.6°F 42.8°F 93% 29.84 in 1.5 miles West 6.9 mph - 0.01 in Rain Light Rain
2:16 PM 44.6°F 42.8°F 93% 29.84 in 1.2 miles West 5.8 mph - 0.02 in Rain Light Rain
2:35 PM 46.4°F 42.8°F 87% 29.85 in 1.5 miles Calm Calm - 0.05 in Rain Light Rain
2:46 PM 46.4°F 42.8°F 87% 29.85 in 2.5 miles Calm Calm - 0.06 in Rain Light Rain
2:53 PM 46.0°F 43.0°F 89% 29.86 in 2.5 miles Calm Calm - 0.06 in Rain Light Rain
3:08 PM 44.6°F 42.8°F 93% 29.86 in 3.0 miles ESE 3.5 mph - 0.00 in Rain Light Rain
3:21 PM 44.6°F 42.8°F 93% 29.86 in 2.5 miles Calm Calm - 0.01 in Rain Light Rain
3:53 PM 45.0°F 43.0°F 93% 29.88 in 2.0 miles Calm Calm - 0.02 in Rain Light Rain
3:56 PM 44.6°F 42.8°F 93% 29.88 in 1.8 miles Calm Calm - 0.00 in Rain Light Rain
4:07 PM 44.6°F 42.8°F 93% 29.88 in 1.5 miles Calm Calm - 0.02 in Rain Light Rain
4:17 PM 44.6°F 42.8°F 93% 29.89 in 1.2 miles Calm Calm - 0.03 in Rain Light Rain
4:25 PM 44.6°F 42.8°F 93% 29.89 in 0.5 miles South 4.6 mph - 0.04 in Fog , Rain Light Rain
4:38 PM 44.6°F 42.8°F 93% 29.90 in 1.5 miles Calm Calm - 0.05 in Rain Light Rain
4:49 PM 44.6°F 42.8°F 93% 29.91 in 1.0 miles Calm Calm - 0.05 in Rain Light Rain
4:53 PM 44.1°F 42.1°F 93% 29.92 in 0.8 miles Calm Calm - 0.05 in Rain Light Rain
5:11 PM 44.6°F 42.8°F 93% 29.92 in 1.0 miles Variable 6.9 mph - 0.03 in Rain Light Rain
5:16 PM 44.6°F 42.8°F 93% 29.93 in 2.0 miles West 5.8 mph - 0.04 in Rain Light Rain
5:23 PM 44.6°F 41.0°F 87% 29.93 in 6.0 miles West 6.9 mph - 0.04 in   Overcast
5:53 PM 44.1°F 41.0°F 89% 29.95 in 4.0 miles West 8.1 mph - 0.04 in   Overcast
6:03 PM 44.6°F 41.0°F 87% 29.95 in 4.0 miles West 8.1 mph - 0.00 in   Overcast
6:53 PM 44.1°F 39.9°F 85% 29.98 in 6.0 miles West 5.8 mph - 0.00 in   Overcast
7:36 PM 42.8°F 39.2°F 87% 30.00 in 5.0 miles West 4.6 mph - N/A   Mostly Cloudy
7:53 PM 41.0°F 37.9°F 89% 30.02 in 5.0 miles West 4.6 mph - N/A   Mostly Cloudy
8:53 PM 39.9°F 37.0°F 89% 30.06 in 4.0 miles Calm Calm - N/A   Scattered Clouds
9:53 PM 36.0°F 35.1°F 97% 30.09 in 4.0 miles Calm Calm - N/A   Partly Cloudy
10:12 PM 35.6°F 33.8°F 93% 30.09 in 1.8 miles Calm Calm - N/A   Clear
10:23 PM 35.6°F 33.8°F 93% 30.10 in 3.0 miles Calm Calm - N/A   Mostly Cloudy
10:29 PM 35.6°F 33.8°F 93% 30.10 in 1.8 miles Calm Calm - N/A   Scattered Clouds
10:38 PM 35.6°F 33.8°F 93% 30.10 in 1.0 miles ENE 3.5 mph - N/A   Scattered Clouds
10:45 PM 35.6°F 33.8°F 93% 30.10 in 0.5 miles Calm Calm - N/A Fog Fog
10:53 PM 35.1°F 33.1°F 92% 30.11 in 1.0 miles East 3.5 mph - N/A   Clear
11:06 PM 35.6°F 33.8°F 93% 30.11 in 0.8 miles Calm Calm - N/A   Scattered Clouds
11:25 PM 33.8°F 32.0°F 93% 30.12 in 1.8 miles East 3.5 mph - N/A   Partly Cloudy
11:32 PM 35.6°F 33.8°F 93% 30.12 in 3.0 miles East 3.5 mph - N/A   Partly Cloudy
11:44 PM 33.8°F 32.0°F 93% 30.13 in 1.8 miles Calm Calm - N/A   Clear
11:49 PM 33.8°F 32.0°F 93% 30.13 in 0.8 miles Calm Calm - N/A   Partly Cloudy
11:53 PM 33.1°F 30.9°F 92% 30.14 in 0.5 miles Calm Calm - N/A Fog Fog
Moon Phase
Jan. 23 Jan. 26 Feb. 03 Feb. 10 Feb. 17
Sunrise:07:55 AM (PST) Moon Rise:02:16 PM (PST)1/23
Sunset:05:05 PM (PST) Moon Set:05:15 AM (PST)1/23

Copyright © 2014 The Weather Underground, Inc.